Tracking 17828 objects as of 30-July-2016
HD Live streaming from Space Station
objects crossing your sky now

METEOSAT 5 AKM

Track METEOSAT 5 AKM now!


NORAD ID: 21904
Int'l Code: 1991-015E
Perigee: 35,146.4 km
Apogee: 36,505.6 km
Inclination: 14.4 °
Period: 1,437.7 minutes
Semi major axis: 42196 km
RCS: 0.9471 m2 (medium)
Launch date: March 2, 1991
Source: European Space Agency (ESA)
Launch site: FRENCH GUIANA (FRGUI)

Note: This is a ROCKET BODY
Your satellite tracking list
Your tracking list is empty





NASA's NSSDC Master Catalog

Two Line Element Set (TLE):
1 21904U 91015E   16209.76894616 -.00000414 +00000-0 +00000-0 0  9997
2 21904 014.4363 008.5955 0161045 139.5176 208.5335 01.00156817080193
Source of the keplerian elements: AFSPC

N2YO: 864